This is the latest recevied weather packets stored in our database for station/object 9W2SSS-1. If no packets are shown the sender has not sent any weather packets the latest 10 day(s).
| Time | Temp. | Humidity | Pressure | Rain* | Wind** | Luminosity | Snow |
|---|---|---|---|---|---|---|---|
| 1777513391 | 40.56° C | 39% | 1009.8 hPa | - | - | - | - |
| 1777512191 | 38.89° C | 42% | 1010 hPa | - | - | - | - |
| 1777510991 | 40° C | 41% | 1009.6 hPa | - | - | - | - |
| 1777509791 | 38.89° C | 43% | 1009.3 hPa | - | - | - | - |
| 1777508591 | 37.78° C | 46% | 1009.3 hPa | - | - | - | - |
| 1777507391 | 35° C | 52% | 1009.1 hPa | - | - | - | - |
| 1777506191 | 31.11° C | 64% | 1009.1 hPa | - | - | - | - |
| 1777504991 | 30° C | 66% | 1009.1 hPa | - | - | - | - |
| 1777503791 | 29.44° C | 65% | 1008.8 hPa | - | - | - | - |
| 1777501391 | 28.33° C | 62% | 1008.6 hPa | - | - | - | - |
| 1777500191 | 28.89° C | 63% | 1008.4 hPa | - | - | - | - |
| 1777498991 | 28.89° C | 63% | 1008.3 hPa | - | - | - | - |
| 1777497791 | 29.44° C | 63% | 1008 hPa | - | - | - | - |
| 1777496591 | 30° C | 67% | 1008 hPa | - | - | - | - |
| 1777495391 | 30° C | 68% | 1007.8 hPa | - | - | - | - |
| 1777494191 | 30° C | 68% | 1008.2 hPa | - | - | - | - |
| 1777492991 | 30° C | 67% | 1008.1 hPa | - | - | - | - |
| 1777491791 | 30° C | 66% | 1008.2 hPa | - | - | - | - |
| 1777490591 | 30° C | 66% | 1008.1 hPa | - | - | - | - |
| 1777489391 | 30.56° C | 66% | 1008.3 hPa | - | - | - | - |
| 1777488191 | 30.56° C | 65% | 1008.5 hPa | - | - | - | - |
| 1777486991 | 30.56° C | 65% | 1008.9 hPa | - | - | - | - |
| 1777485791 | 30.56° C | 65% | 1009.1 hPa | - | - | - | - |
| 1777484591 | 30.56° C | 64% | 1009.2 hPa | - | - | - | - |
| 1777483390 | 30° C | 63% | 1009.4 hPa | - | - | - | - |
* Rain since midnight (hover to see other rain measurements)
** Current wind speed in m/s (hover to see current wind gust speed)